Dumas, TX

5:01 PM CDT on August 21, 2017 (GMT -0500)
Moore County

Weather History for KDUX - February, 2014

Change the Weather History Date:

Sunday, February 9, 2014

  Actual Average (KDHT) Record (KDHT)
Temperature  
Mean Temperature 28 °F -  
Max Temperature 39 °F 49 °F 78 °F (2017)
Min Temperature 17 °F 22 °F 2 °F (1975)
Degree Days  
Heating Degree Days 37    
Moisture  
Dew Point 20 °F    
Average Humidity 86    
Maximum Humidity 95    
Minimum Humidity 54    
Precipitation  
Precipitation 0.00 in - - ()
Sea Level Pressure  
Sea Level Pressure 30.04 in    
Wind  
Wind Speed 8 mph (NE)    
Max Wind Speed 16 mph    
Max Gust Speed 18 mph    
Visibility 3 miles    
Events Fog , Snow    
Averages and records for this station are not official NWS values.
T = Trace of Precipitation, MM = Missing Value Source: NWS Daily Summary

Daily Weather History Graph

Daily Weather History Graph

Search for Another Location

Airport or City:

Trip Planner

Search our weather history database for the weather conditions in past years. The results will help you decide how hot, cold, wet, or windy it might be!

Date:

Astronomy

Feb. 09, 2014 Rise Set
Actual Time 7:41 AM CST 6:23 PM CST
Civil Twilight 7:14 AM CST 6:50 PM CST
Nautical Twilight 6:44 AM CST 7:20 PM CST
Astronomical Twilight 6:14 AM CST 7:50 PM CST
Moon 2:08 PM CST (2/9) 3:44 AM CST (2/9)
Length of Visible Light 11h 35m
Length of Day
10h 42m
Waxing Gibbous, 77% of the Moon is Illuminated
Feb 9
Waxing Gibbous
Feb 14
Full
Feb 22
Last Quarter
Mar 1
New
Mar 8
First Quarter

Hourly Weather History & Observations

Time (CST) Temp. Windchill Dew Point Humidity Pressure Visibility Wind Dir Wind Speed Gust Speed Precip Events Conditions
12:15 AM 39.0 °F 32.8 °F 23.5 °F 54% 29.98 in 10.0 mi WSW 9.2 mph - N/A   Clear
12:35 AM 35.6 °F 27.5 °F 23.5 °F 62% 29.98 in 10.0 mi WSW 11.5 mph - N/A   Clear
12:55 AM 36.7 °F 28.9 °F 23.2 °F 58% 29.98 in 10.0 mi SW 11.5 mph - N/A   Clear
1:15 AM 36.7 °F 29.4 °F 23.2 °F 58% 29.97 in 10.0 mi West 10.4 mph - N/A   Clear
1:35 AM 34.7 °F 27.5 °F 23.0 °F 62% 29.96 in 10.0 mi WSW 9.2 mph - N/A   Clear
1:55 AM 36.9 °F 29.6 °F 23.0 °F 57% 29.97 in 10.0 mi WSW 10.4 mph - N/A   Clear
2:15 AM 35.1 °F 27.9 °F 23.0 °F 61% 29.97 in 10.0 mi WSW 9.2 mph - N/A   Clear
2:35 AM 36.7 °F 29.9 °F 22.8 °F 57% 29.96 in 10.0 mi West 9.2 mph - N/A   Clear
2:55 AM 33.6 °F 26.2 °F 22.3 °F 63% 29.95 in 10.0 mi SW 9.2 mph - N/A   Clear
3:15 AM 33.8 °F 25.8 °F 23.0 °F 65% 29.95 in 10.0 mi WSW 10.4 mph - N/A   Clear
3:35 AM 34.0 °F 25.0 °F 22.8 °F 64% 29.95 in 10.0 mi WSW 12.7 mph - N/A   Clear
3:55 AM 34.9 °F 26.6 °F 23.2 °F 62% 29.93 in 10.0 mi SW 11.5 mph - N/A   Clear
4:15 AM 36.9 °F 29.1 °F 23.4 °F 58% 29.92 in 10.0 mi WSW 11.5 mph - N/A   Clear
4:35 AM 35.6 °F 26.6 °F 23.5 °F 62% 29.90 in 10.0 mi SW 13.8 mph - N/A   Clear
4:55 AM 37.2 °F 28.3 °F 23.2 °F 57% 29.95 in 10.0 mi NE 15.0 mph 18.4 mph N/A   Clear
5:15 AM 26.6 °F 14.7 °F 22.6 °F 85% 29.95 in 10.0 mi NNE 15.0 mph - N/A   Clear
5:35 AM 22.1 °F 9.5 °F 20.8 °F 95% 29.96 in 0.2 mi NNE 13.8 mph - N/A Fog Light Freezing Fog
5:55 AM 20.1 °F 5.9 °F 18.7 °F 94% 29.97 in 0.5 mi NNE 16.1 mph - N/A Fog Light Freezing Fog
6:15 AM 19.6 °F 6.2 °F 18.3 °F 95% 29.98 in 0.5 mi NNE 13.8 mph - N/A Fog Light Freezing Fog
6:35 AM 20.1 °F 8.1 °F 18.7 °F 94% 30.01 in 0.5 mi NNE 11.5 mph - N/A Fog Light Freezing Fog
6:55 AM 20.3 °F 7.7 °F 18.9 °F 94% 30.01 in 0.5 mi NNE 12.7 mph - N/A Snow Light Snow
7:15 AM 20.3 °F 7.7 °F 19.0 °F 95% 30.02 in 0.5 mi NE 12.7 mph - N/A Snow Light Snow
7:35 AM 20.8 °F 13.2 °F 19.4 °F 94% 30.03 in 0.5 mi NE 5.8 mph - N/A Fog Light Freezing Fog
7:55 AM 21.0 °F 11.4 °F 19.8 °F 95% 30.02 in 0.5 mi ENE 8.1 mph - N/A Fog Light Freezing Fog
8:15 AM 21.2 °F 10.9 °F 19.9 °F 95% 30.03 in 0.2 mi NE 9.2 mph - N/A Snow Light Snow
8:35 AM 20.7 °F 8.8 °F 19.2 °F 94% 30.04 in 0.2 mi NNE 11.5 mph - N/A Fog Light Freezing Fog
8:55 AM 19.9 °F 9.3 °F 18.3 °F 93% 30.06 in 0.2 mi NNE 9.2 mph - N/A Fog Light Freezing Fog
9:15 AM 20.1 °F 10.3 °F 18.7 °F 94% 30.06 in 0.2 mi NE 8.1 mph - N/A Fog Light Freezing Fog
9:35 AM 20.1 °F 11.3 °F 18.5 °F 93% 30.08 in 0.5 mi ENE 6.9 mph - N/A Fog Light Freezing Fog
9:55 AM 20.3 °F 12.5 °F 18.7 °F 93% 30.08 in 0.5 mi NNE 5.8 mph - N/A Fog Light Freezing Fog
10:15 AM 20.3 °F 12.5 °F 18.7 °F 93% 30.08 in 0.5 mi NNE 5.8 mph - N/A Fog Light Freezing Fog
10:35 AM 20.3 °F 10.6 °F 18.7 °F 93% 30.08 in 0.5 mi NE 8.1 mph - N/A Fog Light Freezing Fog
10:55 AM 20.1 °F 11.3 °F 18.5 °F 93% 30.08 in 0.5 mi NE 6.9 mph - N/A Fog Light Freezing Fog
11:15 AM 20.3 °F 11.5 °F 19.0 °F 95% 30.08 in 0.8 mi NE 6.9 mph - N/A   Overcast
11:35 AM 20.7 °F 11.9 °F 19.2 °F 94% 30.10 in 0.5 mi NNE 6.9 mph - N/A Fog Light Freezing Fog
11:55 AM 21.0 °F 11.4 °F 19.4 °F 93% 30.09 in 1.2 mi NNE 8.1 mph - N/A   Overcast
12:15 PM 20.8 °F 13.2 °F 19.4 °F 94% 30.09 in 0.8 mi NNE 5.8 mph - N/A   Overcast
12:35 PM 21.2 °F 13.6 °F 19.6 °F 93% 30.09 in 1.2 mi NE 5.8 mph - N/A   Overcast
12:55 PM 21.2 °F 13.6 °F 19.8 °F 94% 30.07 in 1.5 mi NE 5.8 mph - N/A   Overcast
1:15 PM 21.6 °F 15.3 °F 20.1 °F 94% 30.07 in 2.0 mi NE 4.6 mph - N/A   Overcast
1:35 PM 21.7 °F 15.5 °F 20.3 °F 94% 30.06 in 1.8 mi NNE 4.6 mph - N/A   Overcast
1:55 PM 21.7 °F 15.5 °F 20.5 °F 95% 30.05 in 2.0 mi NE 4.6 mph - N/A   Overcast
2:15 PM 21.7 °F 15.5 °F 20.3 °F 94% 30.05 in 1.2 mi NNE 4.6 mph - N/A   Overcast
2:35 PM 21.6 °F 15.3 °F 20.1 °F 94% 30.04 in 1.2 mi NE 4.6 mph - N/A   Overcast
2:55 PM 21.7 °F 14.3 °F 20.3 °F 94% 30.03 in 1.5 mi NE 5.8 mph - N/A   Overcast
3:15 PM 21.4 °F 15.1 °F 20.1 °F 95% 30.04 in 2.0 mi NNE 4.6 mph - N/A   Overcast
3:35 PM 21.2 °F 16.4 °F 19.9 °F 95% 30.04 in 2.5 mi NE 3.5 mph - N/A   Overcast
3:55 PM 21.4 °F 15.1 °F 19.9 °F 94% 30.04 in 1.2 mi NE 4.6 mph - N/A   Overcast
4:15 PM 21.4 °F 13.8 °F 19.9 °F 94% 30.02 in 1.0 mi ENE 5.8 mph - N/A   Overcast
4:35 PM 21.2 °F 16.4 °F 19.9 °F 95% 30.02 in 0.8 mi ENE 3.5 mph - N/A   Overcast
4:55 PM 21.2 °F 14.9 °F 19.9 °F 95% 30.02 in 0.8 mi NE 4.6 mph - N/A   Overcast
5:15 PM 21.2 °F 14.9 °F 19.9 °F 95% 30.01 in 1.0 mi East 4.6 mph - N/A   Overcast
5:35 PM 21.0 °F 14.6 °F 19.4 °F 93% 30.03 in 1.2 mi ENE 4.6 mph - N/A   Overcast
5:55 PM 21.0 °F 16.2 °F 19.4 °F 93% 30.04 in 1.5 mi NE 3.5 mph - N/A   Overcast
6:15 PM 21.0 °F 16.2 °F 19.4 °F 93% 30.05 in 2.5 mi East 3.5 mph - N/A   Overcast
6:35 PM 20.7 °F 15.8 °F 19.2 °F 94% 30.06 in 1.2 mi ENE 3.5 mph - N/A   Overcast
6:55 PM 19.9 °F 14.9 °F 18.3 °F 93% 30.06 in 0.5 mi ENE 3.5 mph - N/A Snow Snow
7:15 PM 19.4 °F 12.8 °F 17.8 °F 93% 30.06 in 0.5 mi ENE 4.6 mph - N/A Snow Light Snow
7:35 PM 19.2 °F 14.1 °F 17.6 °F 93% 30.08 in 0.5 mi ENE 3.5 mph - N/A Snow Light Snow
7:55 PM 19.0 °F - 17.4 °F 93% 30.10 in 0.5 mi Calm Calm - N/A Fog Light Freezing Fog
8:15 PM 19.0 °F - 17.4 °F 93% 30.10 in 0.5 mi Calm Calm - N/A Fog Light Freezing Fog
8:35 PM 19.0 °F - 17.4 °F 93% 30.10 in 0.8 mi Calm Calm - N/A   Overcast
8:55 PM 18.9 °F - 17.2 °F 93% 30.11 in 1.8 mi Calm Calm - N/A   Overcast
9:15 PM 18.5 °F - 16.7 °F 93% 30.11 in 1.5 mi Calm Calm - N/A   Overcast
9:35 PM 18.5 °F - 16.7 °F 93% 30.13 in 1.2 mi Calm Calm - N/A   Overcast
9:55 PM 18.5 °F - 16.7 °F 93% 30.16 in 2.5 mi Calm Calm - N/A   Overcast
10:15 PM 18.3 °F - 16.5 °F 93% 30.15 in 1.0 mi Calm Calm - N/A   Overcast
10:35 PM 18.1 °F - 16.2 °F 92% 30.16 in 1.8 mi Calm Calm - N/A   Overcast
10:55 PM 18.0 °F - 15.8 °F 91% 30.17 in 3.0 mi Calm Calm - N/A   Overcast
11:15 PM 17.6 °F - 15.8 °F 93% 30.19 in 1.5 mi Calm Calm - N/A   Overcast
11:35 PM 17.4 °F - 15.4 °F 92% 30.19 in 2.5 mi Calm Calm - N/A   Overcast
11:55 PM 17.1 °F - 14.9 °F 91% 30.19 in 2.0 mi Calm Calm - N/A   Overcast